Change the Weather History Date:

Wednesday, December 12, 2012

  Actual Average Record
Temperature  
Mean Temperature 44 °F 44 °F  
Max Temperature 50 °F 53 °F 73 °F (2007)
Min Temperature 39 °F 36 °F 5 °F (1962)
Degree Days  
Heating Degree Days 20 21  
Month to date heating degree days 233  
Since 1 July heating degree days 768  
Moisture  
Dew Point 35 °F    
Average Humidity 67    
Maximum Humidity 79    
Minimum Humidity 58    
Precipitation  
Precipitation 0.00 in 0.18 in 3.98 in (1961)
Month to date precipitation 2.07  
Year to date precipitation 51.55  
Sea Level Pressure  
Sea Level Pressure 30.20 in    
Wind  
Wind Speed 6 mph (ENE)    
Max Wind Speed 16 mph    
Max Gust Speed 21 mph    
Visibility 10 miles    
Events Rain    
T = Trace of Precipitation, MM = Missing Value Source: NWS Daily Summary

Daily Weather History Graph

Daily Weather History Graph

Search for Another Location

Airport or City:

Trip Planner

Search our weather history database for the weather conditions in past years. The results will help you decide how hot, cold, wet, or windy it might be!

Date:

Astronomy

Dec. 12, 2012 Rise Set
Actual Time 7:32 AM EST 5:26 PM EST
Civil Twilight 7:04 AM EST 5:54 PM EST
Nautical Twilight 6:33 AM EST 6:25 PM EST
Astronomical Twilight 6:02 AM EST 6:55 PM EST
Moon 6:36 AM EST (12/12) 5:01 PM EST (12/12)
Length of Visible Light 10h 49m
Length of Day
9h 53m
Waning Crescent, 1% of the Moon is Illuminated
Dec 12
Waning Crescent
Dec 13
New
Dec 20
First Quarter
Dec 28
Full
Jan 4
Last Quarter

Hourly Weather History & Observations

Time (EST) Temp. Windchill Dew Point Humidity Pressure Visibility Wind Dir Wind Speed Gust Speed Precip Events Conditions
12:53 AM 39.9 °F - 34.0 °F 79% 30.13 in 10.0 mi Calm Calm - N/A   Clear
1:53 AM 41.0 °F - 35.1 °F 79% 30.14 in 10.0 mi Calm Calm - N/A   Clear
2:53 AM 42.1 °F - 36.0 °F 79% 30.14 in 10.0 mi Calm Calm - N/A   Clear
3:53 AM 43.0 °F 39.5 °F 35.1 °F 74% 30.15 in 10.0 mi NE 5.8 mph - N/A   Clear
4:53 AM 43.0 °F 38.8 °F 33.1 °F 68% 30.16 in 10.0 mi ENE 6.9 mph - N/A   Clear
5:53 AM 43.0 °F 38.8 °F 33.1 °F 68% 30.17 in 10.0 mi ENE 6.9 mph - N/A   Clear
6:53 AM 42.1 °F 37.1 °F 34.0 °F 73% 30.17 in 10.0 mi NE 8.1 mph - N/A   Clear
7:53 AM 43.0 °F 38.8 °F 33.1 °F 68% 30.19 in 10.0 mi ENE 6.9 mph - N/A   Clear
8:53 AM 44.1 °F 40.8 °F 34.0 °F 68% 30.20 in 10.0 mi NE 5.8 mph - N/A   Clear
9:53 AM 45.0 °F 40.6 °F 34.0 °F 65% 30.22 in 10.0 mi ENE 8.1 mph - N/A   Clear
10:53 AM 46.9 °F - 35.1 °F 63% 30.24 in 10.0 mi ENE 10.4 mph - N/A   Clear
11:53 AM 46.9 °F - 35.1 °F 63% 30.22 in 10.0 mi East 13.8 mph 20.7 mph N/A   Partly Cloudy
12:08 PM 46.4 °F 41.5 °F 35.6 °F 66% 30.21 in 10.0 mi ENE 10.4 mph - N/A   Mostly Cloudy
12:35 PM 48.2 °F - 35.6 °F 62% 30.20 in 10.0 mi ENE 9.2 mph - N/A   Scattered Clouds
12:53 PM 48.0 °F - 36.0 °F 63% 30.21 in 10.0 mi East 10.4 mph 19.6 mph N/A   Clear
1:53 PM 46.9 °F - 36.0 °F 66% 30.19 in 10.0 mi ENE 9.2 mph - N/A   Clear
2:53 PM 48.0 °F - 36.0 °F 63% 30.18 in 10.0 mi ENE 9.2 mph - N/A   Partly Cloudy
3:17 PM 48.2 °F - 35.6 °F 62% 30.20 in 10.0 mi NE 8.1 mph - N/A   Mostly Cloudy
3:53 PM 48.9 °F - 36.0 °F 61% 30.20 in 10.0 mi ENE 9.2 mph - N/A   Overcast
4:02 PM 50.0 °F - 35.6 °F 58% 30.20 in 10.0 mi ENE 8.1 mph - N/A   Overcast
4:53 PM 48.0 °F - 36.0 °F 63% 30.21 in 10.0 mi East 8.1 mph - N/A   Overcast
5:08 PM 46.4 °F 41.9 °F 35.6 °F 66% 30.21 in 10.0 mi ENE 9.2 mph - N/A   Overcast
5:53 PM 46.9 °F - 36.0 °F 66% 30.20 in 10.0 mi ENE 6.9 mph - N/A   Overcast
6:53 PM 46.9 °F - 36.0 °F 66% 30.22 in 10.0 mi ENE 5.8 mph - N/A   Overcast
7:53 PM 46.9 °F - 36.0 °F 66% 30.24 in 10.0 mi NE 4.6 mph - N/A   Overcast
8:53 PM 46.9 °F - 36.0 °F 66% 30.26 in 10.0 mi ENE 4.6 mph - N/A   Overcast
9:53 PM 46.0 °F 39.3 °F 36.0 °F 68% 30.21 in 10.0 mi East 16.1 mph 20.7 mph N/A   Overcast
10:00 PM 44.6 °F 39.2 °F 35.6 °F 71% 30.22 in 10.0 mi East 10.4 mph 20.7 mph 0.00 in Rain Light Rain
10:11 PM 44.6 °F 42.2 °F 35.6 °F 71% 30.25 in 10.0 mi Variable 4.6 mph - 0.00 in Rain Light Rain
10:53 PM 45.0 °F 40.1 °F 36.0 °F 71% 30.24 in 10.0 mi ENE 9.2 mph - 0.00 in   Overcast
11:53 PM 45.0 °F 40.6 °F 35.1 °F 68% 30.25 in 10.0 mi East 8.1 mph 16.1 mph N/A   Overcast